| time (UTC) | temp C | wind direction | speed KPH | gust KPH | rain 1hr cm | rain 24hr cm | rain mn cm | humidity % | barometer mb |
| 20260502163010 | 23 | 161 | 8.0 | 14.5 | 0.00 | 0.00 | 0.00 | 42 | 1009.9 |
| 20260502161508 | 23 | 146 | 9.7 | 16.1 | 0.00 | 0.00 | 0.00 | 42 | 1010.0 |
| 20260502151500 | 24 | 193 | 11.3 | 20.9 | 0.00 | 0.00 | 0.00 | 41 | 1010.8 |
| 20260502123022 | 22 | 155 | 11.3 | 27.4 | 0.00 | 0.00 | 0.00 | 46 | 1013.3 |
| 20260502121534 | 22 | 173 | 14.5 | 29.0 | 0.00 | 0.00 | 0.00 | 47 | 1013.5 |
| 20260502114512 | 22 | 360 | 16.1 | 24.1 | 0.00 | 0.00 | 0.00 | 49 | 1013.8 |
| 20260502113010 | 22 | 195 | 14.5 | 25.7 | 0.00 | 0.00 | 0.00 | 48 | 1014.0 |
| 20260502111508 | 21 | 200 | 12.9 | 22.5 | 0.00 | 0.00 | 0.00 | 48 | 1014.2 |
| 20260502110005 | 21 | 196 | 11.3 | 25.7 | 0.00 | 0.00 | 0.00 | 50 | 1014.3 |
| 20260502104502 | 21 | 160 | 11.3 | 19.3 | 0.00 | 0.00 | 0.00 | 52 | 1014.5 |
| 20260502103109 | 21 | 198 | 12.9 | 25.7 | 0.00 | 0.00 | 0.00 | 52 | 1014.6 |
| 20260502101610 | 20 | 202 | 14.5 | 25.7 | 0.00 | 0.00 | 0.00 | 52 | 1014.8 |
| 20260502071509 | 16 | 177 | 11.3 | 25.7 | 0.00 | 0.00 | 0.00 | 62 | 1016.0 |
| 20260502070010 | 16 | 200 | 14.5 | 25.7 | 0.00 | 0.00 | 0.00 | 63 | 1016.1 |
| 20260502064604 | 16 | 158 | 11.3 | 20.9 | 0.00 | 0.00 | 0.00 | 65 | 1016.2 |
| 20260502063059 | 15 | 173 | 11.3 | 20.9 | 0.00 | 0.00 | 0.00 | 68 | 1016.2 |
| 20260502061553 | 15 | 188 | 11.3 | 22.5 | 0.00 | 0.00 | 0.00 | 69 | 1016.2 |
| 20260502060047 | 14 | 172 | 9.7 | 19.3 | 0.00 | 0.00 | 0.00 | 72 | 1016.3 |
| 20260502054546 | 13 | 154 | 4.8 | 11.3 | 0.00 | 0.00 | 0.00 | 75 | 1016.4 |
| 20260502053039 | 13 | 177 | 8.0 | 12.9 | 0.00 | 0.00 | 0.00 | 76 | 1016.5 |
| 20260502051533 | 12 | 151 | 4.8 | 12.9 | 0.00 | 0.00 | 0.00 | 77 | 1016.6 |
| 20260502050030 | 12 | 167 | 3.2 | 9.7 | 0.00 | 0.00 | 0.00 | 77 | 1016.8 |
| 20260502044527 | 11 | 128 | 0.0 | 3.2 | 0.00 | 0.00 | 0.00 | 79 | 1016.8 |
| 20260502043024 | 10 | 128 | 3.2 | 6.4 | 0.00 | 0.00 | 0.00 | 80 | 1016.9 |
| 20260502041521 | 10 | 121 | 3.2 | 6.4 | 0.00 | 0.00 | 0.00 | 82 | 1017.0 |
| 20260502040017 | 10 | 122 | 3.2 | 4.8 | 0.00 | 0.00 | 0.00 | 84 | 1017.1 |
| 20260502034515 | 9 | 128 | 1.6 | 3.2 | 0.00 | 0.00 | 0.00 | 82 | 1017.3 |
| 20260502033014 | 10 | 128 | 0.0 | 4.8 | 0.00 | 0.00 | 0.00 | 82 | 1017.4 |
| 20260502031513 | 10 | 128 | 3.2 | 6.4 | 0.00 | 0.00 | 0.00 | 82 | 1017.5 |
| 20260502030009 | 10 | 129 | 3.2 | 6.4 | 0.00 | 0.00 | 0.00 | 82 | 1017.6 |
| 20260502024507 | 10 | 130 | 3.2 | 4.8 | 0.00 | 0.00 | 0.00 | 81 | 1017.8 |
| 20260502023005 | 10 | 132 | 3.2 | 6.4 | 0.00 | 0.00 | 0.00 | 81 | 1017.9 |
| 20260502021503 | 11 | 133 | 4.8 | 8.0 | 0.00 | 0.00 | 0.00 | 80 | 1018.1 |
| 20260502020002 | 11 | 130 | 4.8 | 8.0 | 0.00 | 0.00 | 0.00 | 80 | 1018.2 |
| 20260502014559 | 11 | 134 | 4.8 | 8.0 | 0.00 | 0.00 | 0.00 | 79 | 1018.4 |
| 20260502013056 | 11 | 143 | 3.2 | 6.4 | 0.00 | 0.00 | 0.00 | 78 | 1018.6 |
| 20260502011556 | 11 | 153 | 0.0 | 3.2 | 0.00 | 0.00 | 0.00 | 76 | 1018.9 |
| 20260502010054 | 11 | 153 | 1.6 | 4.8 | 0.00 | 0.00 | 0.00 | 76 | 1019.0 |
| 20260502004605 | 11 | 148 | 3.2 | 11.3 | 0.00 | 0.00 | 0.00 | 75 | 1019.0 |
| 20260502003050 | 12 | 131 | 3.2 | 8.0 | 0.00 | 0.00 | 0.00 | 73 | 1019.1 |
| 20260502001548 | 12 | 139 | 4.8 | 9.7 | 0.00 | 0.00 | 0.00 | 72 | 1019.2 |
| 20260502000054 | 12 | 124 | 4.8 | 6.4 | 0.00 | 0.00 | 0.00 | 71 | 1019.3 |
| 20260501234544 | 12 | 131 | 3.2 | 6.4 | 0.00 | 0.00 | 0.00 | 71 | 1019.4 |
| 20260501233044 | 12 | 133 | 3.2 | 11.3 | 0.00 | 0.00 | 0.00 | 69 | 1019.5 |
| 20260501231542 | 12 | 126 | 4.8 | 11.3 | 0.00 | 0.00 | 0.00 | 70 | 1019.6 |
| 20260501230039 | 12 | 114 | 6.4 | 12.9 | 0.00 | 0.00 | 0.00 | 68 | 1019.6 |
| 20260501224539 | 12 | 117 | 6.4 | 11.3 | 0.00 | 0.00 | 0.00 | 70 | 1019.8 |
| 20260501223032 | 11 | 115 | 4.8 | 9.7 | 0.00 | 0.00 | 0.00 | 72 | 1019.9 |
| 20260501221527 | 10 | 123 | 4.8 | 9.7 | 0.00 | 0.00 | 0.00 | 77 | 1020.0 |
| 20260501220024 | 10 | 130 | 4.8 | 6.4 | 0.00 | 0.00 | 0.00 | 81 | 1020.1 |
| 20260501214523 | 10 | 165 | 4.8 | 6.4 | 0.00 | 0.00 | 0.00 | 82 | 1020.3 |
| 20260501213022 | 10 | 165 | 0.0 | 0.0 | 0.00 | 0.00 | 0.00 | 80 | 1020.4 |
| 20260501211526 | 11 | 165 | 0.0 | 0.0 | 0.00 | 0.00 | 0.00 | 78 | 1020.5 |
| 20260501210018 | 11 | 165 | 0.0 | 0.0 | 0.00 | 0.00 | 0.00 | 76 | 1020.6 |
| 20260501204517 | 11 | 165 | 0.0 | 0.0 | 0.00 | 0.00 | 0.00 | 74 | 1020.7 |
| 20260501203017 | 12 | 165 | 0.0 | 0.0 | 0.00 | 0.00 | 0.00 | 71 | 1020.7 |
| 20260501201519 | 12 | 165 | 0.0 | 0.0 | 0.00 | 0.00 | 0.00 | 70 | 1020.8 |
| 20260501200015 | 12 | 165 | 0.0 | 0.0 | 0.00 | 0.00 | 0.00 | 68 | 1020.9 |
| 20260501194517 | 13 | 165 | 0.0 | 0.0 | 0.00 | 0.00 | 0.00 | 64 | 1020.9 |
| 20260501193023 | 14 | 165 | 0.0 | 0.0 | 0.00 | 0.00 | 0.00 | 59 | 1021.1 |
| 20260501191520 | 15 | 165 | 0.0 | 0.0 | 0.00 | 0.00 | 0.00 | 55 | 1021.1 |
| 20260501190012 | 16 | 165 | 0.0 | 0.0 | 0.00 | 0.00 | 0.00 | 54 | 1021.1 |
| 20260501184511 | 16 | 165 | 0.0 | 0.0 | 0.00 | 0.00 | 0.00 | 51 | 1021.2 |
| 20260501183011 | 16 | 165 | 0.0 | 3.2 | 0.00 | 0.00 | 0.00 | 50 | 1021.2 |
| 20260501181510 | 17 | 165 | 1.6 | 4.8 | 0.00 | 0.00 | 0.00 | 49 | 1021.2 |